Temperature
15 15 15 14 14 14 14 14 14 13 13 13 12 12 12 13 13 13 13 13 13 13 13 12 12 12 12 12 12 12 12 12 12 12 12 12 12 12
14 14 14 14 14 14 14 14 14 14 13 13 12 12 12 12 12 12 12 12 12 12 12 12 12 12 12 12 12 12 12 12 12 12 12 12 11 11
14 14 14 14 14 14 14 14 14 13 13 13 12 12 12 12 12 12 12 12 12 12 12 11 11 11 11 11 11 11 11 11 11 11 11 11 11 11
14 14 14 14 14 13 13 13 13 13 13 13 12 12 12 12 12 12 12 12 11 11 11 11 11 11 11 10 10 10 10 10 10 11 11 11 11 10
14 14 14 13 13 13 13 13 13 13 13 13 12 12 12 12 12 11 11 11 11 11 10 10 10 10 10 10 10 10 10 10 10 10 10 10 10 10
14 13 13 13 13 13 13 13 13 13 12 12 12 12 12 11 11 11 11 11 11 10 10 10 10 10 9 9 9 9 9 9 9 9 9 9 9 9
14 13 13 13 13 13 13 13 13 13 12 12 12 12 11 11 11 11 10 10 10 10 10 9 9 9 9 9 9 8 8 8 8 8 8 8 8 8
14 13 13 13 13 13 13 13 12 12 12 12 12 11 11 11 10 10 10 10 10 10 9 9 9 9 8 8 8 8 8 8 8 8 8 8 8 8
13 13 13 13 13 13 12 12 12 12 12 11 11 11 11 11 10 10 10 10 9 9 9 9 9 8 8 8 8 7 7 7 7 7 7 7 7 7
13 13 13 13 13 12 12 12 12 12 11 11 11 11 11 10 10 10 10 9 9 9 9 8 8 8 8 8 7 7 7 7 7 7 7 7 7 7
13 13 13 13 12 12 12 12 12 12 11 11 11 11 10 10 10 10 9 9 9 9 8 8 8 8 8 7 7 7 7 6 6 6 6 6 6 6
13 13 13 12 12 12 12 12 12 11 11 11 11 10 10 10 10 9 9 9 8 8 8 7 7 7 7 7 7 6 6 6 6 6 6 6 5 5
13 13 12 12 12 12 12 11 11 11 11 10 10 10 10 10 9 9 9 8 8 8 7 7 7 6 6 6 6 6 6 6 5 5 5 5 5 5
13 12 12 12 12 11 11 11 11 11 10 10 10 10 10 9 9 9 8 8 7 7 7 6 6 6 6 5 5 5 5 5 5 5 5 4 4 4
12 12 12 11 11 11 11 11 10 10 10 10 10 10 9 9 8 8 8 7 7 7 6 6 6 6 5 5 5 5 5 5 4 4 4 4 4 4
12 12 11 11 11 11 10 10 10 10 10 9 9 9 9 8 8 8 7 7 7 7 6 6 6 5 5 5 4 4 4 4 4 4 4 3 3 3
12 12 11 11 11 10 10 10 10 9 9 9 9 9 8 8 8 7 7 7 6 6 6 6 5 5 5 4 4 4 3 3 3 3 3 3 3 3
12 11 11 11 11 10 10 9 9 9 9 8 8 8 8 7 7 7 6 6 6 6 5 5 5 5 4 4 4 3 3 3 3 2 2 2 2 2
11 11 11 11 10 10 9 9 9 8 8 8 8 8 7 7 6 6 6 5 5 5 4 4 4 4 3 3 3 2 2 2 2 2 2 1 1 1
11 11 11 10 10 10 9 9 8 8 8 7 7 7 7 6 6 5 5 5 4 4 4 4 3 3 3 2 2 2 2 1 1 1 1 1 1 1
11 11 10 10 10 9 9 8 8 8 7 7 7 6 6 6 5 5 4 4 4 4 3 3 3 2 2 2 2 2 2 1 1 0 0 -0 -0 0
10 10 10 9 9 9 8 8 8 7 7 6 6 6 5 5 5 4 4 4 3 3 3 3 2 2 2 1 1 1 1 1 1 0 -0 -1 -1 -1
10 10 9 9 9 8 8 8 7 7 6 6 6 5 5 5 4 4 4 3 3 3 3 2 2 2 1 1 1 0 0 0 0 0 -0 -0 -1 -1
Wind_Speed
3 3 3 2 2 2 3 4 4 2 1 2 1 2 3 3 3 4 4 6 6 6 7 7 8 9 10 11 11 11 11 11 11 11 10 10 9 8
2 3 3 2 2 2 2 2 3 4 2 1 1 1 2 2 3 3 4 5 6 6 6 7 7 8 9 10 10 10 10 11 11 11 10 9 9 8
3 3 2 2 2 2 2 3 3 3 3 1 1 1 1 1 3 3 4 4 5 6 6 6 6 7 8 8 9 9 9 10 10 11 11 10 9 8
2 3 2 2 3 2 2 3 2 2 4 2 1 1 1 1 1 2 3 4 4 5 5 6 6 7 7 8 8 8 8 9 9 9 10 10 10 9
2 3 2 3 2 2 2 2 2 2 3 3 0 1 1 1 1 2 3 3 4 4 5 5 6 6 7 7 7 7 7 7 8 8 8 9 9 9
2 2 2 3 3 2 2 2 2 2 2 2 1 1 1 1 1 1 2 3 3 4 5 5 6 6 6 6 7 7 6 6 7 7 7 8 8 9
1 1 2 3 3 3 3 3 3 2 2 2 1 1 1 1 1 1 1 2 3 2 2 3 4 5 6 6 6 7 7 6 7 6 7 7 7 8
2 1 0 1 2 3 3 4 5 4 3 2 1 1 2 2 1 1 0 1 3 3 1 3 2 3 5 5 6 7 7 7 7 7 7 7 7 8
3 2 1 1 2 1 2 3 2 2 4 4 3 3 3 3 2 1 1 2 3 3 0 3 2 3 4 6 6 7 7 8 8 8 8 8 8 8
3 3 2 1 1 3 2 2 1 1 1 2 3 4 4 3 4 3 3 2 2 2 1 1 3 3 4 6 7 7 8 8 8 8 9 9 8 8
2 3 3 2 3 4 4 2 0 2 2 0 1 2 2 2 2 2 1 1 2 3 1 1 2 3 3 3 5 8 8 8 9 10 10 9 9 7
1 2 3 3 4 5 4 4 2 2 1 2 3 3 3 3 1 2 3 2 1 2 2 1 1 2 3 3 3 6 7 8 9 10 10 9 9 7
2 2 2 3 4 4 4 4 4 2 1 0 1 2 2 3 3 1 2 3 3 3 2 1 1 1 1 3 3 4 4 5 6 8 9 10 9 7
4 3 3 4 3 3 3 4 3 3 2 1 1 1 2 2 2 2 1 1 2 3 3 1 2 2 2 2 4 3 4 5 4 4 7 9 9 8
4 5 4 3 2 1 2 3 3 2 2 1 1 2 2 2 2 2 2 2 2 2 3 1 1 2 2 3 3 3 3 4 4 4 4 4 4 4
3 3 3 3 2 1 1 1 1 2 2 2 2 2 1 1 1 1 1 1 1 3 4 4 3 1 2 3 2 3 3 3 4 5 4 4 5 6
5 2 2 1 1 0 0 0 0 1 1 1 1 1 1 1 2 1 1 0 0 2 3 3 5 3 2 2 2 3 4 4 4 4 3 4 4 6
6 3 3 3 3 3 3 1 1 1 2 1 1 1 1 1 1 1 1 0 1 2 2 2 2 3 3 2 2 3 3 4 4 4 3 3 5 6
5 4 4 4 4 3 3 3 2 2 2 2 2 2 1 1 1 1 1 1 1 2 2 2 1 1 2 5 4 2 2 4 4 3 3 3 5 6
4 5 5 4 4 4 4 3 3 2 2 2 2 2 1 1 1 1 1 1 2 2 2 2 1 2 3 4 4 4 5 4 3 4 4 4 5 7
4 4 4 4 4 4 4 4 3 3 3 2 2 2 2 1 1 2 2 2 2 2 3 3 5 5 3 1 3 4 4 7 6 5 4 4 5 4
4 5 4 4 4 4 4 3 3 3 3 2 2 2 2 2 2 2 2 2 3 3 4 4 4 2 1 2 5 6 6 6 8 9 8 6 4 4
5 4 4 4 4 4 4 4 4 3 3 3 3 2 2 2 2 2 2 2 3 3 3 3 3 2 2 3 5 5 7 6 5 5 5 10 10 11
Wind_Direction
85 85 84 73 84 96 118 136 138 132 314 307 346 346 8 36 29 48 43 36 37 36 35 33 31 30 29 27 25 28 30 29 27 24 22 24 26 29
85 87 75 68 71 81 100 105 125 142 163 261 263 285 31 37 19 31 29 26 22 27 25 26 28 29 29 28 26 25 27 26 25 24 23 22 23 24
76 94 81 74 74 71 79 87 97 119 132 307 338 6 37 35 14 14 16 16 11 20 17 18 20 20 21 22 22 22 23 23 21 21 22 22 22 19
99 96 81 88 77 69 81 90 98 116 134 139 331 344 313 281 333 359 8 11 7 11 13 15 14 17 20 19 18 17 18 18 19 19 20 19 17 9
132 126 120 109 94 85 91 99 99 97 113 134 192 320 326 335 3 1 10 1 5 10 8 6 10 10 7 8 9 10 10 10 11 14 15 15 12 7
136 141 139 142 154 142 122 129 122 97 91 102 68 347 333 337 37 10 351 346 342 1 3 4 3 359 355 356 358 1 2 4 5 6 8 8 7 3
100 126 151 153 158 154 145 156 139 124 112 103 71 2 335 346 309 287 318 324 325 352 348 347 353 355 346 345 350 355 355 355 357 359 359 358 358 357
142 126 104 116 127 135 136 150 154 153 161 154 185 229 267 258 256 243 256 359 319 318 353 317 354 331 333 339 344 349 351 351 348 346 347 348 347 346
175 177 142 107 107 111 100 91 109 134 159 165 183 223 234 230 207 235 224 220 248 274 342 303 318 308 317 334 340 344 348 349 349 346 344 344 341 340
182 177 177 225 178 151 132 99 15 311 205 166 196 224 225 219 198 203 211 229 281 301 145 271 305 295 313 325 334 342 345 346 346 347 346 342 339 339
209 184 183 208 202 163 140 150 292 318 3 271 244 258 273 262 192 129 89 65 312 301 287 190 293 302 304 309 328 342 345 343 340 337 336 336 336 337
241 220 204 204 206 175 162 167 198 261 308 16 16 10 14 9 16 160 183 184 228 286 279 188 285 337 323 304 316 336 342 341 341 341 340 339 340 343
209 235 235 208 191 182 172 180 197 191 160 97 6 354 2 5 360 12 161 175 193 241 258 171 229 263 255 294 308 314 329 329 331 332 336 338 339 341
205 219 216 198 183 179 172 175 170 136 113 85 42 339 325 317 318 343 1 184 207 230 264 188 202 225 243 283 293 306 315 320 322 320 325 330 331 330
198 197 189 181 166 153 163 164 146 137 132 136 239 269 272 282 329 360 8 24 15 346 334 309 223 233 213 240 273 289 302 307 313 312 312 311 308 317
170 149 130 119 117 116 91 109 147 161 166 197 237 268 299 330 335 333 319 326 354 332 345 337 326 238 245 257 254 283 286 291 306 305 300 298 308 309
146 114 104 107 118 128 322 264 166 149 184 214 221 258 294 315 316 324 320 345 308 302 322 336 348 339 268 235 268 281 287 291 291 296 305 301 292 300
143 157 181 188 198 206 202 207 206 208 214 207 210 219 240 267 304 331 344 320 284 299 304 313 340 355 351 329 249 265 290 293 299 304 295 294 295 301
158 182 193 201 206 206 203 202 212 223 209 195 202 214 216 243 284 314 323 314 289 290 294 302 321 336 318 308 298 292 283 298 305 305 294 282 282 292
184 192 202 205 203 203 204 205 207 205 199 201 204 211 210 220 252 277 278 255 268 282 300 308 289 262 259 273 279 294 305 286 294 296 296 291 281 289
201 203 205 204 205 203 203 201 195 196 199 199 207 211 211 203 236 258 270 270 264 269 282 285 278 285 270 289 296 292 287 297 289 285 290 296 300 300
200 204 206 203 199 197 195 194 193 194 195 200 207 211 212 208 224 249 259 264 260 258 268 279 293 302 276 269 281 289 296 304 311 308 302 293 286 288
198 198 199 199 199 195 191 193 196 202 204 204 207 211 213 222 229 235 248 255 265 269 276 289 300 293 273 268 279 290 297 302 304 306 302 312 305 296
Height
1556 1556 1556 1556 1556 1556 1556 1557 1557 1557 1557 1557 1557 1556 1555 1555 1554 1552 1551 1550 1548 1547 1545 1543 1541 1539 1537 1534 1531 1528 1526 1524 1522 1520 1517 1515 1513 1512
1557 1557 1556 1556 1556 1556 1557 1557 1557 1557 1557 1557 1556 1556 1555 1555 1554 1552 1551 1550 1548 1547 1545 1543 1541 1539 1537 1534 1531 1529 1526 1524 1522 1520 1518 1516 1515 1513
1557 1557 1557 1557 1556 1556 1556 1556 1556 1556 1556 1556 1556 1556 1555 1554 1553 1552 1551 1549 1548 1546 1544 1543 1541 1538 1536 1534 1531 1529 1527 1524 1522 1520 1518 1516 1515 1514
1557 1557 1557 1557 1556 1556 1556 1556 1556 1556 1556 1555 1555 1555 1554 1554 1553 1551 1550 1549 1547 1545 1544 1542 1540 1538 1536 1533 1531 1529 1527 1524 1522 1520 1518 1516 1515 1513
1557 1557 1557 1556 1556 1556 1556 1556 1556 1556 1555 1555 1554 1554 1553 1553 1552 1550 1549 1548 1546 1545 1543 1541 1539 1537 1535 1533 1530 1528 1526 1524 1522 1520 1518 1516 1514 1512
1557 1557 1557 1556 1556 1556 1556 1556 1555 1555 1555 1554 1553 1553 1552 1551 1550 1549 1547 1546 1545 1543 1541 1539 1538 1536 1534 1532 1529 1527 1525 1523 1521 1519 1517 1515 1513 1511
1556 1556 1556 1556 1556 1555 1555 1555 1555 1554 1553 1553 1552 1551 1551 1550 1549 1547 1546 1545 1543 1542 1540 1538 1536 1534 1532 1530 1528 1526 1524 1522 1519 1517 1515 1513 1511 1509
1556 1555 1555 1555 1555 1555 1554 1554 1554 1553 1552 1551 1551 1550 1549 1548 1547 1546 1544 1542 1541 1540 1538 1536 1534 1532 1530 1528 1526 1524 1522 1520 1518 1516 1513 1511 1509 1507
1555 1554 1554 1554 1554 1553 1553 1553 1552 1552 1551 1551 1549 1548 1547 1546 1545 1544 1542 1541 1539 1538 1536 1533 1532 1530 1528 1526 1524 1522 1520 1518 1516 1514 1512 1509 1507 1505
1553 1553 1553 1552 1552 1552 1551 1551 1551 1550 1549 1548 1548 1546 1546 1544 1543 1542 1540 1539 1537 1536 1534 1531 1529 1528 1526 1524 1522 1520 1518 1516 1513 1511 1509 1507 1505 1503
1551 1551 1551 1550 1550 1550 1550 1549 1548 1548 1547 1546 1546 1544 1543 1542 1541 1539 1538 1536 1534 1533 1531 1529 1527 1525 1523 1521 1520 1518 1516 1513 1511 1509 1506 1504 1502 1500
1549 1549 1549 1548 1548 1548 1547 1547 1546 1546 1545 1544 1543 1542 1541 1540 1538 1537 1535 1533 1531 1530 1528 1527 1524 1523 1520 1518 1517 1515 1513 1510 1508 1506 1504 1501 1499 1497
1546 1546 1546 1546 1545 1545 1545 1544 1544 1543 1542 1541 1540 1539 1538 1537 1535 1534 1532 1531 1529 1527 1526 1524 1522 1520 1518 1515 1513 1512 1509 1507 1505 1503 1500 1498 1496 1493
1543 1543 1543 1543 1543 1542 1542 1541 1541 1540 1539 1538 1537 1536 1535 1533 1532 1531 1529 1527 1526 1524 1523 1521 1519 1517 1515 1512 1510 1508 1506 1504 1501 1499 1497 1494 1492 1490
1540 1540 1540 1540 1540 1539 1539 1539 1538 1537 1536 1535 1534 1532 1531 1530 1529 1527 1526 1524 1522 1521 1519 1517 1515 1513 1511 1509 1506 1504 1502 1500 1498 1495 1493 1490 1488 1485
1536 1536 1537 1536 1536 1536 1536 1535 1535 1534 1533 1532 1530 1529 1528 1527 1525 1524 1522 1520 1518 1516 1515 1514 1512 1510 1507 1505 1503 1501 1499 1496 1494 1491 1488 1486 1484 1481
1533 1533 1533 1533 1532 1532 1532 1532 1531 1531 1529 1528 1527 1526 1524 1523 1521 1520 1518 1516 1514 1512 1511 1510 1508 1506 1504 1502 1500 1497 1495 1492 1490 1487 1484 1481 1479 1477
1529 1528 1529 1529 1529 1528 1528 1528 1527 1527 1526 1525 1524 1522 1521 1519 1518 1516 1514 1512 1510 1509 1507 1506 1504 1502 1500 1498 1497 1493 1491 1488 1485 1483 1480 1476 1473 1472
1525 1524 1525 1525 1525 1525 1524 1524 1523 1523 1522 1521 1520 1519 1517 1516 1514 1512 1511 1509 1507 1505 1504 1502 1500 1498 1495 1493 1491 1490 1487 1483 1480 1478 1475 1472 1469 1466
1520 1521 1521 1521 1521 1521 1520 1520 1519 1519 1518 1517 1516 1515 1513 1512 1510 1508 1507 1505 1503 1502 1500 1498 1496 1494 1492 1490 1487 1485 1483 1480 1476 1473 1470 1467 1465 1463
1516 1516 1517 1517 1517 1516 1516 1515 1515 1514 1514 1513 1512 1510 1509 1508 1506 1504 1503 1501 1500 1498 1496 1494 1492 1491 1489 1486 1483 1479 1478 1476 1473 1470 1466 1463 1459 1456
1511 1512 1512 1512 1512 1512 1512 1511 1510 1510 1509 1508 1507 1506 1505 1504 1502 1501 1499 1497 1495 1494 1492 1490 1488 1486 1484 1481 1478 1475 1472 1471 1469 1466 1463 1461 1457 1453
1507 1507 1508 1508 1508 1508 1507 1507 1506 1505 1505 1504 1503 1502 1501 1499 1498 1496 1495 1493 1491 1489 1487 1486 1484 1482 1479 1477 1474 1471 1468 1465 1463 1460 1459 1457 1454 1451